Accueil
METAR-TAF:

METAR-TAF

Aéroports :

Plate-forme pétrolière

Snorre B, Norvège

latitude: 61-32N, longitude: 2-12E, altitude: 90 m

Observation

Le bulletin a été fait il y a 24 minutes, à 07:20 UTC
Vent 27 kt de ouest/sud-ouest
Température 8°C
Humidité 71%
Pression 1012 hPa
Visibilité 10 km ou plus

METAR: ENQR 200720Z AUTO 25027KT 9999NDV FEW026/// SCT030/// 08/03 Q1012 W///S6

Heure: 08:44 (07:44 UTC)


TAF: absent

Observations et prévisions météorologiques de plus de 4000 aéroports (messages METAR et TAF).

Les stations disponibles sont représentées par des disques jaunes et rouges sur la carte.

Passer la souris dessus pour voir le nom de la station.

Cliquer dessus pour voir les observations et prévisions météorologiques.

Pour changer de carte: cliquez sur les boutons verts avec une croix noire pour zoomer, sur le bouton vert avec un tiret pour effectuer un zoom arrière, ou sur les flèches vertes pour les cartes adjacentes.


METAR-TAF: